Starlink 35487

operational
NORAD ID: 66263 Int'l Des: 2025-245 Owner: SPXS Country: US Constellation: starlink
LEOCIRCULAR

Über Starlink 35487

Beschreibung wird geladen...

Live-Position

3D-Globus wird geladen...

Nächste Überflüge

Höhenverlauf

Altitude vs Time

uPlot chart will show altitude changes over time

Zweizeiliger Elementsatz

1 66263C 25245AE 25303.07687500 .00455440 00000+0 71243-3 0 3037
2 66263 53.1599 182.3329 0004476 306.3769 138.2541 16.02808509 14
Epoch: 30. Okt. 2025 • Age: 28 hours

Aktueller Status

Höhe 266.3 km
Geschwindigkeit 7.75 km/s
Subsatellitenpunkt 8.80°N, 103.97°W
Startdatum 29. Okt. 2025
Alter 1 days
Typ internet

Technische Details

Klassifizierung Payload
Masse 575.00 kg
Trockenmasse 530.00 kg
Gesamtmasse 575.00 kg
Länge 0.30 m
Durchmesser 4.10 m
Spannweite 29.00 m
Form Box + pan
Hersteller SPXS
Bus-Typ Starlink V2MO
Phasenstatus In Orbit
Besitzer/Staat SPXS/US

Große Konstellationen

Loading constellations...